Flag for Russia Weather past 2 weeks in Chelyabinsk, Russia

Now
77 °F

Thunderstorms. Partly sunny.


Feels Like: 78 °F
Forecast: 61 / 87 °F
Wind: 20 mph from West

Location: Chelyabinsk-Balandino

Current Time: May 29, 2015 at 2:28:05 PM

Latest Report: May 29, 2015 at 2:00 PM


Visibility: N/A

Pressure: 29.98 "Hg

Humidity: 34%

Dew point: 46 °F

Location of ChelyabinskLocation

Historic Weather in Chelyabinsk — Graph

°F

Chelyabinsk temperature yesterday

Maximum temperature yesterday: 82 °F (at 4:00 PM)
Minimum temperature yesterday: 54 °F (at 4:30 AM)
Average temperature yesterday: 69 °F

Past Weeks' High & Low Weather Summary

 TemperatureHumidityPressure
High82 °F (May 28, 4:00 PM)100% (May 16, 8:30 AM)30.15 "Hg (May 16, 8:30 AM)
Low36 °F (May 23, 2:30 AM)8% (May 23, 2:00 PM)29.36 "Hg (May 17, 6:30 AM)
Average57 °F62%29.79 "Hg
* Reported May 14 1:00 PM — May 29 1:30 PM, Chelyabinsk, Weather by CustomWeather, © 2015

Note: Actual official high and low records may vary slightly from our data, if they occured in-between our weather recording intervals... More about our weather records

Advertising

Chelyabinsk weather history for previous 24 hours

 ConditionsComfort  
Time TempWeatherWind HumidityBarometerVisibility
1:30 PM
Fri, May 29
81 °FPartly sunny.3 mph28%29.98 "HgN/A
1:00 PM82 °FScattered clouds.3 mph26%29.98 "HgN/A
12:30 PM82 °FScattered clouds.3 mph23%29.98 "HgN/A
12:00 PM82 °FPassing clouds.6 mph23%29.98 "HgN/A
11:30 AM81 °FPassing clouds.6 mph30%30.01 "HgN/A
11:00 AM81 °FPassing clouds.8 mph32%30.01 "HgN/A
10:30 AM79 °FPassing clouds.8 mph37%30.01 "HgN/A
10:00 AM77 °FPassing clouds.6 mph36%30.01 "HgN/A
9:30 AM75 °FPassing clouds.6 mph41%30.01 "HgN/A
9:00 AM73 °FPassing clouds.6 mph41%30.01 "HgN/A
8:30 AM73 °FSunny.6 mph41%30.01 "Hg10 mi
8:00 AM70 °FSunny.6 mph57%30.01 "Hg10 mi
7:30 AM68 °FSunny.1 mph64%30.01 "Hg10 mi
7:00 AM64 °FClear.No wind78%30.01 "Hg3 mi
6:30 AM61 °FFog.1 mph88%30.01 "Hg3 mi
6:00 AM57 °FFog.1 mph88%30.01 "Hg3 mi
5:30 AM55 °FFog.1 mph88%30.01 "Hg3 mi
5:00 AM55 °FFog.1 mph88%29.98 "Hg3 mi
4:30 AM57 °FFog.1 mph88%29.98 "Hg3 mi
3:00 AM57 °FPassing clouds.6 mph88%29.98 "Hg3 mi
2:30 AM57 °FPassing clouds.1 mph82%29.98 "Hg3 mi
2:00 AM59 °FPassing clouds.No wind68%29.98 "Hg3 mi
1:30 AM59 °FPassing clouds.1 mph77%29.98 "Hg3 mi
1:00 AM64 °FPassing clouds.3 mph64%29.98 "Hg3 mi
12:30 AM64 °FPassing clouds.6 mph64%29.98 "HgN/A
12:00 AM64 °FPassing clouds.6 mph68%29.98 "HgN/A
11:30 PM
Thu, May 28
63 °FPassing clouds.6 mph73%29.98 "HgN/A
11:00 PM63 °FScattered clouds.6 mph68%29.98 "HgN/A
10:30 PM66 °FScattered clouds.3 mph60%29.98 "HgN/A
10:00 PM68 °FScattered clouds.1 mph53%29.98 "HgN/A
9:30 PM64 °FScattered clouds.3 mph64%29.98 "HgN/A
9:00 PM68 °FScattered clouds.1 mph56%29.98 "HgN/A
8:30 PM68 °FScattered clouds.3 mph56%29.98 "HgN/A
8:00 PM73 °FThunderstorms. Scattered clouds.3 mph44%29.95 "HgN/A
7:30 PM77 °FScattered clouds.8 mph32%29.95 "HgN/A
7:00 PM81 °FPassing clouds.10 mph26%29.95 "HgN/A
6:30 PM81 °FPassing clouds.10 mph23%29.95 "HgN/A
6:00 PM82 °FPassing clouds.13 mph25%29.95 "HgN/A
5:30 PM82 °FPassing clouds.8 mph26%29.95 "HgN/A
5:00 PM82 °FPassing clouds.8 mph26%29.95 "HgN/A
4:30 PM81 °FPassing clouds.10 mph28%29.95 "HgN/A
4:00 PM82 °FPassing clouds.10 mph26%29.98 "HgN/A
3:30 PM79 °FPassing clouds.3 mph32%29.98 "HgN/A
3:00 PM77 °FThunderstorms. Scattered clouds.8 mph34%29.98 "HgN/A
2:30 PM81 °FThunderstorms. Passing clouds.15 mph30%30.01 "HgN/A
2:00 PM79 °FPassing clouds.13 mph30%30.01 "HgN/A
Weather by CustomWeather, © 2015

See weather overviewHow to use our weather pages